sat.trackr.live / text

‹ back to catalog

ONEWEB-0351

NORAD 49215 · 2021-083AF

PAYLOAD ACTIVE UNKNOWN

§ Identity

Operator
Country
UK
Launch date
2021-09-14
Launch site
TYMSC
Launch vehicle
Mass (kg)
RCS (m²)

Purposes: comms

External: N2YO · Heavens-Above · Gunter

§ Orbital elements

Epoch: 2026-05-24T22:12:03.633984Z

Period
109.03 min
Inclination
87.9177°
Eccentricity
0.0001070
Mean motion
13.20772610 rev/d
Perigee alt
1,181.0 km
Apogee alt
1,182.6 km
Semi-major
7,559.9 km
B*
-1.4207e-4
RAAN
279.0768°
Arg perigee
112.2787°
Mean anomaly
247.8459°
Rev number
23,370

§ Raw data

ONEWEB-03511 49215U 21083AF  26144.92504206 -.00000045  00000+0 -14207-3 0  99972 49215  87.9177 279.0768 0001070 112.2787 247.8459 13.20772610233700

JSON: /api/v1/satellites/49215 · /tle

For live sub-satellite position, see the globe view (requires WebGL).

§ Visibility from observer

Set your observer location to see the next 7 days of passes ≥ 10°. The values pass through the URL so the page stays shareable.

No JS? Fill the form by hand. The geolocation button needs JavaScript.